Location: Home
(42.5358°N, 72.7383°W)
Time: 09:28:11
(UTC-05:00)

Courier 1B - Pass Details

Date: 30 November 2021
Orbit: 962 x 1209 km, 28.3° (Epoch: 21 January)

Event Time Altitude Azimuth Distance (km) Brightness Sun altitude
Rises 17:29:56 0° 224° (SW) 3,953 11.8 -12.8°
Reaches altitude 10° 17:33:41 10° 207° (SSW) 2,947 10.7 -13.4°
Maximum altitude 17:38:24 19° 166° (SSE) 2,307 9.5 -14.3°
Drops below altitude 10° 17:42:56 10° 124° (SE) 2,828 9.5 -15.1°
Enters shadow 17:43:36 - 120° (ESE) 2,979 9.6 -15.2°
Sets 17:46:26 0° 107° (ESE) 3,738 - -15.7°
